Location: Nitra
(0.0000°N, 18.0833°E)
Time: 19:54:45
(UTC+02:00)

RS-44 - Pass Details

Date: 05 June 2023
Orbit: 1175 x 1510 km, 82.5° (Epoch: 26 September)

Event Time Altitude Azimuth Distance (km) Brightness Sun altitude
Rises 06:12:07 0° 154° (SSE) 4,473 ? -7.8°
Reaches altitude 10° 06:15:44 10° 140° (SE) 3,544 ? -7.0°
Maximum altitude 06:21:59 22° 92° (E) 2,760 ? -5.6°
Drops below altitude 10° 06:28:21 10° 45° (NE) 3,648 ? -4.1°
Sets 06:32:05 0° 32° (NNE) 4,637 ? -3.2°
